Regional Weather Roundup
Issued by NWS

Home | Current Version | Previous Version | Text Only | Print | Product List | Glossary On
Versions: 1 2 3 4 5 6 7 8 9 10 11 12 13 14 15 16 17 18 19 20 21 22 23 24 25 26 27 28 29 30 31 32 33 34 35 36 37 38 39 40 41 42 43 44 45 46 47 48 49 50
000
ASUS46 KLOX 020112
RWRCA

SOUTHERN CALIFORNIA WEATHER ROUNDUP
NATIONAL WEATHER SERVICE OXNARD CALIFORNIA
500 PM PST SUN MAR 01 2015

NOTE: "FAIR" INDICATES FEW OR NO CLOUDS BELOW 12,000 FEET WITH NO
SIGNIFICANT WEATHER AND/OR OBSTRUCTIONS TO VISIBILITY.

  -  STATIONS PRECEEDED BY AN ASTERISK (*) ARE NOT NWS OR FAA
     STATIONS AND ARE NOT SUBJECT TO NWS AND FAA QUALITY CONTROL.

CAZ041-042-087-020200-
LA AND ORANGE COUNTY COASTAL AREAS


CITY           SKY/WX    TMP DP  RH WIND       PRES   REMARKS
L.A. DOWNTOWN  CLOUDY    57  47  69 NW3       29.89S
L.A. AIRPORT   MOCLDY    59  46  62 S6G17     29.90S
LONG BEACH     MOCLDY    60  45  57 S9        29.90S

CITY           SKY/WX    TMP DP  RH WIND       PRES   REMARKS
AVALON           N/A     57 N/A N/A MISG        N/A
FULLERTON      CLOUDY    61  45  55 S8        29.89R
*GETTY CENTER    N/A    N/A N/A N/A N9G15       N/A
HAWTHORNE      MOCLDY    60  46  59 S8        29.90S
*LOS ALAMITOS  MOCLDY    60  45  58 S12       29.90S
*REDONDO BEACH   N/A     59  47  65 SE3       29.91S
SANTA ANA      CLOUDY    62  44  51 S10       29.91R
STA MONICA APT HVY RAIN  51  47  86 NW7       29.90F FOG
TORRANCE         N/A     59  48  67 SE13      29.90F
*UCLA            N/A     50  46  87 NW6       29.88S

$$

CAZ547-548-048-020200-
LA COUNTY VALLEYS AND INLAND EMPIRE


CITY           SKY/WX    TMP DP  RH WIND       PRES   REMARKS
BURBANK        CLOUDY    54  45  71 NW6       29.89R
VAN NUYS       LGT RAIN  52  47  83 VRB3      29.90R

CITY           SKY/WX    TMP DP  RH WIND       PRES   REMARKS
CORONA AIRPORT CLOUDY    57  41  55 SE12      29.90R
*CHATSWORTH      N/A     51  45  80 S1        29.93R
CHINO          MOCLDY    57  44  62 E7        29.90S
*CLAREMONT       N/A     52  43  72 NE5         N/A
MARCH AFB      MOCLDY    51  43  73 SE9       29.90R
*NORTHRIDGE      N/A     50  45  81 W3          N/A
ONTARIO        MOCLDY    56  42  59 SE5       29.89F
*PASADENA        N/A     57  45  62 E2          N/A
POMONA         MOCLDY    54  43  66 E7        29.92S
RIVERSIDE      MOCLDY    56  42  59 E7        29.89S
SAN BERNARDINO CLOUDY    54  39  58 S8        29.93R
*WHITEMAN AP   NOT AVBL
*WOODLAND HILL   N/A     50  46  87 N3          N/A

$$

CAZ054-055-020200-
LA AND SAN BERNARDINO COUNTY MOUNTAINS


CITY           SKY/WX    TMP DP  RH WIND       PRES   REMARKS
*ACTON           N/A     49  43  80 S5          N/A
*BIG BEAR AIRP CLOUDY    30  27  86 NE3       29.87S
*BIG PINES       N/A     31  28  90 CALM        N/A
*CHILAO          N/A     36  34  91 SE12        N/A  WCI  28
MT WILSON NWS    N/A     34  34 100 MISG        N/A
SANDBERG       LGT RAIN  38  34  85 SW9       29.89S VSB 1/4 WCI  31
*WARM SPRINGS    N/A     39  39 100 SE8         N/A  WCI  33

$$

CAZ028-029-059-060-099-020200-
ANTELOPE VALLEY AND SURROUNDING AREAS


CITY           SKY/WX    TMP DP  RH WIND       PRES   REMARKS
LANCASTER      CLOUDY    49  38  65 SW7       29.89S
PALMDALE       CLOUDY    47  42  83 SW10      29.89F

CITY           SKY/WX    TMP DP  RH WIND       PRES   REMARKS
29 PALMS       LGT RAIN  47  43  86 SE7       30.01F
BARSTOW/DAGGET CLOUDY    51  41  68 E18       29.88F
BISHOP         CLOUDY    46  26  45 SE5       29.92S
CHINA LAKE     LGT RAIN  46  40  79 NW13      29.93R
EDWARDS AFB    MOCLDY    53  34  47 E5        29.86R
MOJAVE         FAIR      48  37  66 N12       29.89F
NEEDLES        LGT RAIN  52  48  86 N10       29.95S
VICTORVILLE    MOCLDY    48  36  61 SE12      29.89F

$$

CAZ039-040-020200-
VENTURA AND SANTA BARBARA COUNTY COAST


CITY           SKY/WX    TMP DP  RH WIND       PRES   REMARKS
CAMARILLO      MOCLDY    59  44  57 NW8       29.89S
OXNARD AIRPORT MOCLDY    60  48  64 W8        29.89F
*POINT MUGU    MOCLDY    62  48  60 W8        29.91S
SBA APT/GOLETA MOSUNNY   59  46  62 W8        29.89F
*SANTA BARBARA   N/A     62  42  47 CALM      29.97F
*VENTURA         N/A     59  43  53 CALM      29.93S

$$

CAZ044-045-020200-
VENTURA COUNTY VALLEYS


CITY           SKY/WX    TMP DP  RH WIND       PRES   REMARKS
*SIMI VALLEY     N/A     50  46  84 CALM      29.91R
*OJAI            N/A     50  47  89 CALM      29.87F
*FILLMORE        N/A     57  46  65 CALM      29.81R

$$

CAZ053-020200-
VENTURA COUNTY MOUNTAINS


CITY           SKY/WX    TMP DP  RH WIND       PRES   REMARKS
*LOCKWOOD VLY    N/A     32  32 100 CALM        N/A
*ROSE VALLEY     N/A     37  39 100 MISG        N/A

$$

CAZ034-035-036-020200-
CENTRAL COAST AND SANTA YNEZ VALLEY


CITY           SKY/WX    TMP DP  RH WIND       PRES   REMARKS
SAN LUIS OBISP CLOUDY    51  47  86 NW5       29.93R
SANTA MARIA    LGT RAIN  54  48  80 NW6       29.91F

CITY           SKY/WX    TMP DP  RH WIND       PRES   REMARKS
*CAL POLY SLO    N/A     52  46  82 CALM        N/A
*LOMPOC        MOSUNNY   57  43  58 NW6       29.92F
*PISMO BEACH     N/A     55  49  81 CALM      29.93S
*SANTA YNEZ    FAIR      54  43  66 NW8       29.90S

$$

CAZ037-038-051-020200-
SAN LUIS OBISPO COUNTY INTERIOR AND CUYAMA VALLEY


CITY           SKY/WX    TMP DP  RH WIND       PRES   REMARKS
*CUYAMA          N/A     47  41  78 CALM      29.90R
PASO ROBLES    CLOUDY    55  38  52 SW5       29.90S

$$

CAZ032-033-061-020200-
SOUTHERN DESERTS


CITY           SKY/WX    TMP DP  RH WIND       PRES   REMARKS
BLYTHE         CLOUDY    52  51  97 NW9       29.94S
IMPERIAL       CLOUDY    54  50  86 NW9       29.94S
PALM SPRINGS   LGT RAIN  52  51  97 CALM      29.98S
THERMAL        LGT RAIN  56  48  74 N5        29.96R

$$

ELSEWHERE ACROSS THE WESTERN UNITED STATES AND MEXICO


CITY           SKY/WX    TMP DP  RH WIND       PRES   REMARKS
DENVER, CO     MOCLDY    21  15  78 S6        30.22R WCI  13
GRAND CANYON,  LGT SNOW  33  32  96 SE3       29.99R FOG
HONOLULU, HI   MOSUNNY   82  64  54 NE17G23   29.93F
KAHULUI, MAUI  PTSUNNY   81  68  65 NE15      29.96F
LAKE TAHOE, CA MOCLDY    37  22  54 VRB5      29.92F WCI  33
LAS VEGAS, NV  LGT RAIN  50  42  74 E8        29.92F
MAMMOTH LAKES, MOCLDY    28  27  93 W6        29.92S WCI  22
MEXICO CITY, M CLEAR     73  43  33 SE12      30.28R
PHOENIX, AZ    PTCLDY    74  43  32 S14G24    29.86R
PORTLAND, OR   CLOUDY    55  17  22 NE3       30.02F
RENO, NV       MOCLDY    43  25  49 NW6       29.97F
SALT LAKE CITY CLOUDY    43  29  57 W7        30.00F
SAN DIEGO, CA  LGT RAIN  56  47  71 E8        29.93S
SAN FRANCISCO, MOSUNNY   59  47  64 W17       29.92S
SAN JOSE, CA   MOSUNNY   61  39  44 W9        29.90F
SEATTLE, WA    CLOUDY    51  29  42 CALM      30.02F
TIJUANA, MEX   LGT RAIN  54  46  76 E12       29.94R

$$

STATION/POSITION TIME  TEMP    WIND        PRES    VSBY  WAVE
                       AIR SEA DIR/SP/G                  HT/PER
                 (UTC) (F)     (DEG/KT/KT) (MB)    (MI)  (FT/S)
POINT ARGUELLO B NOT AVBL
WEST SANTA BARBA 0100   57 61  330/  4/  8 1012.2F         8/12
POINT CONCEPTION NOT AVBL
EAST SANTA BARBA NOT AVBL
SANTA MONICA BAY 0100   60 62  250/  2/  4 1012.6R         2/12


USA.gov is the U.S. government's official web portal to all federal, state and local government web resources and services.